Location: Boone Canyon
(38.3180°N, 119.2504°W)
Time: 16:56:54
(UTC+00:00)

IRIDIUM 104 - Pass Details

Date: 18 September 2020
Orbit: 776 x 779 km, 86.4° (Epoch: 19 October)

Event Time Altitude Azimuth Distance (km) Brightness Sun altitude
Rises 12:02:37 0° 358° (N) 3,266 7.8 -19.9°
Reaches altitude 10° 12:04:58 10° 359° (N) 2,334 7.0 -19.4°
Maximum altitude 12:10:12 83° 88° (E) 787 4.3 -18.5°
Drops below altitude 10° 12:15:24 10° 177° (S) 2,317 6.7 -17.5°
Sets 12:17:44 0° 177° (S) 3,240 7.4 -17.1°
